sat.trackr.live / text

‹ back to catalog

STARLINK-31485

NORAD 59308 · 2024-056N

PAYLOAD ACTIVE UNKNOWN

§ Identity

Operator
Country
US
Launch date
2024-03-24
Launch site
AFETR
Launch vehicle
Mass (kg)
RCS (m²)

Purposes: comms

External: N2YO · Heavens-Above · Gunter

§ Orbital elements

Epoch: 2026-05-25T01:50:18.259008Z

Period
94.27 min
Inclination
42.9999°
Eccentricity
0.0000989
Mean motion
15.27574979 rev/d
Perigee alt
482.4 km
Apogee alt
483.7 km
Semi-major
6,861.2 km
B*
3.5464e-5
RAAN
159.5780°
Arg perigee
277.5778°
Mean anomaly
82.4961°
Rev number
12,283

§ Raw data

STARLINK-314851 59308U 24056N   26145.07660022  .00000714  00000+0  35464-4 0  99902 59308  42.9999 159.5780 0000989 277.5778  82.4961 15.27574979122835

JSON: /api/v1/satellites/59308 · /tle

For live sub-satellite position, see the globe view (requires WebGL).

§ Visibility from observer

Set your observer location to see the next 7 days of passes ≥ 10°. The values pass through the URL so the page stays shareable.

No JS? Fill the form by hand. The geolocation button needs JavaScript.